Location: Unspecified
(49.2170°N, 0.0000°E)
Time: 15:54:15
(UTC+00:00)

Transit 2A - Pass Details

Date: 20 June 2019
Orbit: 594 x 964 km, 66.7° (Epoch: 21 July)

Event Time Altitude Azimuth Distance (km) Brightness Sun altitude
Exits shadow 01:36:04 17° 226° (SW) 2,216 7.8 -14.4°
Maximum altitude 01:41:04 71° 309° (NW) 1,012 6.6 -14.0°
Drops below altitude 10° 01:47:18 10° 33° (NNE) 2,636 10.2 -13.6°
Sets 01:49:48 0° 36° (NE) 3,543 11.2 -13.4°
